Simultaneous Nadir Overpasses (SNOs) Predictions

Prediction of SNOs between AQUA and GOES-15 Satellite Orbit:

Table of predicted SNOs for the next 14.0 days since TLE Epoch: 5/4/2012
Index Date Time (AQUA) AQUA Lat,Lon GOES-15 Lat,Lon Distance(km) Time Diff (sec)
1 05/05/2012 22:23:23 0.68,-131.97 -0.02,-135.26 373.95 80
2 05/06/2012 10:44:39 0.39,-137.14 0.00,-135.27 211.89 80
3 05/08/2012 10:32:28 -0.22,-134.18 0.00,-135.30 127.13 80
4 05/08/2012 22:53:52 -0.86,-139.38 0.01,-135.31 463.01 80
5 05/10/2012 10:20:18 -0.85,-131.23 0.01,-135.33 465.52 80
6 05/10/2012 22:41:42 -0.24,-136.43 0.01,-135.33 124.71 80
7 05/12/2012 22:29:34 0.40,-133.48 0.01,-135.36 213.17 80
8 05/13/2012 10:50:49 0.71,-138.64 -0.02,-135.36 373.11 80
9 05/15/2012 10:38:41 0.05,-135.70 -0.02,-135.39 35.97 80
10 05/17/2012 10:26:33 -0.56,-132.76 -0.02,-135.40 300.32 80
11 05/17/2012 22:47:59 -0.49,-137.96 0.04,-135.40 290.68 80




NCC Satellite Simultaneous Nadir Overpasses (SNOs) Prediction Service
